TimeMST,TemperatureF,Dew PointF,Humidity,Sea Level PressureIn,VisibilityMPH,Wind Direction,Wind SpeedMPH,Gust SpeedMPH,PrecipitationIn,Events,Conditions,WindDirDegrees,DateUTC
12:15 AM,32.0,28.8,88,30.04,10.0,Calm,Calm,-,N/A,,Clear,0,2012-11-18 07:15:00
12:35 AM,31.3,28.9,91,30.03,10.0,Calm,Calm,-,N/A,,Clear,0,2012-11-18 07:35:00
12:55 AM,31.1,28.6,90,30.03,10.0,Calm,Calm,-,N/A,,Clear,0,2012-11-18 07:55:00
1:15 AM,32.4,28.8,87,30.03,10.0,SSE,3.5,-,N/A,,Clear,160,2012-11-18 08:15:00
1:35 AM,33.3,28.8,84,30.03,10.0,Calm,Calm,-,N/A,,Clear,0,2012-11-18 08:35:00
1:55 AM,31.1,28.0,88,30.02,10.0,SSW,3.5,-,N/A,,Clear,200,2012-11-18 08:55:00
2:15 AM,32.0,28.6,87,30.02,10.0,SW,6.9,-,N/A,,Clear,230,2012-11-18 09:15:00
2:35 AM,31.8,28.0,86,30.02,10.0,SSW,5.8,-,N/A,,Clear,210,2012-11-18 09:35:00
2:55 AM,31.8,28.2,87,30.01,10.0,Calm,Calm,-,N/A,,Clear,0,2012-11-18 09:55:00
3:15 AM,32.0,28.0,85,30.01,10.0,Calm,Calm,-,N/A,,Clear,0,2012-11-18 10:15:00
3:35 AM,30.6,27.3,88,30.00,10.0,Calm,Calm,-,N/A,,Clear,0,2012-11-18 10:35:00
3:55 AM,29.7,27.7,92,29.99,10.0,Calm,Calm,-,N/A,,Clear,0,2012-11-18 10:55:00
4:15 AM,28.8,26.8,92,30.00,10.0,SSW,3.5,-,N/A,,Clear,210,2012-11-18 11:15:00
4:35 AM,28.4,26.8,94,30.00,10.0,SW,4.6,-,N/A,,Clear,220,2012-11-18 11:35:00
4:55 AM,28.6,26.8,93,30.00,10.0,South,4.6,-,N/A,,Clear,170,2012-11-18 11:55:00
5:15 AM,30.2,27.5,90,30.00,10.0,Calm,Calm,-,N/A,,Clear,0,2012-11-18 12:15:00
5:35 AM,29.5,27.1,91,30.00,10.0,SSW,4.6,-,N/A,,Clear,200,2012-11-18 12:35:00
5:55 AM,31.1,27.5,87,30.00,10.0,South,4.6,-,N/A,,Clear,180,2012-11-18 12:55:00
6:15 AM,29.5,26.8,90,29.99,10.0,SW,6.9,-,N/A,,Clear,220,2012-11-18 13:15:00
6:35 AM,28.9,26.6,91,29.99,10.0,South,8.1,-,N/A,,Clear,190,2012-11-18 13:35:00
6:55 AM,30.9,27.5,87,29.99,10.0,Calm,Calm,-,N/A,,Clear,0,2012-11-18 13:55:00
7:15 AM,30.2,27.1,88,29.99,10.0,SSW,3.5,-,N/A,,Clear,210,2012-11-18 14:15:00
7:35 AM,31.8,29.1,90,29.99,10.0,Calm,Calm,-,N/A,,Clear,0,2012-11-18 14:35:00
7:55 AM,35.2,31.6,87,30.00,10.0,NE,4.6,-,N/A,,Clear,40,2012-11-18 14:55:00
8:15 AM,37.6,32.5,82,30.00,10.0,South,3.5,-,N/A,,Clear,180,2012-11-18 15:15:00
8:35 AM,40.5,32.9,74,30.00,10.0,Calm,Calm,-,N/A,,Clear,0,2012-11-18 15:35:00
8:55 AM,47.3,34.9,62,30.00,10.0,Calm,Calm,-,N/A,,Clear,0,2012-11-18 15:55:00
9:15 AM,54.9,30.2,39,30.00,10.0,West,4.6,-,N/A,,Clear,280,2012-11-18 16:15:00
9:35 AM,58.3,27.5,31,30.00,10.0,WSW,11.5,19.6,N/A,,Clear,250,2012-11-18 16:35:00
9:55 AM,59.5,27.5,30,30.00,10.0,WSW,12.7,17.3,N/A,,Clear,240,2012-11-18 16:55:00
10:15 AM,59.9,27.5,29,30.00,10.0,WSW,12.7,20.7,N/A,,Clear,240,2012-11-18 17:15:00
10:35 AM,60.8,26.4,27,30.00,10.0,WSW,17.3,23.0,N/A,,Clear,250,2012-11-18 17:35:00
10:55 AM,61.2,25.7,26,30.00,10.0,WSW,18.4,26.5,N/A,,Clear,250,2012-11-18 17:55:00
11:15 AM,61.7,25.9,26,29.99,10.0,West,17.3,24.2,N/A,,Clear,260,2012-11-18 18:15:00
11:34 AM,61.3,25.5,26,29.99,10.0,West,17.3,29.9,N/A,,Clear,270,2012-11-18 18:34:00
11:55 AM,61.9,24.6,24,29.98,10.0,West,25.3,31.1,N/A,,Clear,270,2012-11-18 18:55:00
12:15 PM,61.9,24.3,24,29.96,10.0,WNW,25.3,34.5,N/A,,Clear,290,2012-11-18 19:15:00
12:35 PM,60.3,22.8,24,29.97,10.0,West,19.6,33.4,N/A,,Clear,270,2012-11-18 19:35:00
1:15 PM,62.2,23.4,23,29.97,10.0,West,19.6,31.1,N/A,,Clear,270,2012-11-18 20:15:00
1:35 PM,62.2,24.3,23,29.97,10.0,West,21.9,33.4,N/A,,Clear,280,2012-11-18 20:35:00
1:55 PM,61.9,24.4,24,29.97,10.0,WNW,19.6,31.1,N/A,,Clear,290,2012-11-18 20:55:00
2:15 PM,61.3,23.2,23,29.97,10.0,WNW,20.7,32.2,N/A,,Clear,290,2012-11-18 21:15:00
2:35 PM,61.7,23.0,23,29.97,10.0,West,18.4,26.5,N/A,,Clear,280,2012-11-18 21:35:00
2:55 PM,60.8,21.2,22,29.98,10.0,West,18.4,28.8,N/A,,Clear,280,2012-11-18 21:55:00
3:15 PM,60.3,21.0,22,29.98,10.0,West,19.6,28.8,N/A,,Clear,280,2012-11-18 22:15:00
3:35 PM,60.1,20.5,22,29.99,10.0,West,19.6,25.3,N/A,,Clear,270,2012-11-18 22:35:00
3:55 PM,59.0,21.7,24,29.99,10.0,West,19.6,25.3,N/A,,Clear,260,2012-11-18 22:55:00
4:15 PM,57.6,22.1,25,30.00,10.0,West,17.3,20.7,N/A,,Clear,260,2012-11-18 23:15:00
4:35 PM,55.4,22.5,28,30.00,10.0,West,15.0,20.7,N/A,,Clear,270,2012-11-18 23:35:00
4:55 PM,55.0,22.3,28,30.01,10.0,West,15.0,20.7,N/A,,Clear,260,2012-11-18 23:55:00
5:15 PM,54.7,22.8,29,30.02,10.0,West,12.7,-,N/A,,Clear,260,2012-11-19 00:15:00
5:35 PM,52.7,23.2,32,30.03,10.0,WSW,10.4,-,N/A,,Clear,250,2012-11-19 00:35:00
5:55 PM,52.5,23.4,32,30.03,10.0,WSW,9.2,16.1,N/A,,Clear,240,2012-11-19 00:55:00
6:15 PM,52.5,23.2,32,30.04,10.0,WSW,6.9,-,N/A,,Clear,250,2012-11-19 01:15:00
6:35 PM,50.4,23.2,35,30.04,10.0,West,9.2,-,N/A,,Clear,270,2012-11-19 01:35:00
6:55 PM,48.0,23.9,39,30.05,10.0,West,6.9,-,N/A,,Clear,270,2012-11-19 01:55:00
7:15 PM,51.6,21.7,31,30.04,10.0,WSW,9.2,-,N/A,,Clear,250,2012-11-19 02:15:00
7:35 PM,53.1,21.9,30,30.04,10.0,West,9.2,-,N/A,,Clear,260,2012-11-19 02:35:00
7:55 PM,53.1,21.0,29,30.04,10.0,West,5.8,-,N/A,,Clear,260,2012-11-19 02:55:00
8:15 PM,53.8,21.2,28,30.04,10.0,West,12.7,23.0,N/A,,Clear,260,2012-11-19 03:15:00
8:35 PM,53.2,22.3,30,30.04,10.0,West,16.1,23.0,N/A,,Clear,270,2012-11-19 03:35:00
8:55 PM,54.7,21.7,28,30.05,10.0,WSW,16.1,25.3,N/A,,Clear,250,2012-11-19 03:55:00
9:35 PM,52.7,22.6,31,30.06,10.0,WSW,8.1,-,N/A,,Clear,240,2012-11-19 04:35:00
10:15 PM,50.4,22.8,34,30.07,10.0,WSW,5.8,-,N/A,,Clear,240,2012-11-19 05:15:00
10:35 PM,50.5,22.5,33,30.07,10.0,WSW,8.1,-,N/A,,Clear,250,2012-11-19 05:35:00
10:55 PM,50.9,22.5,33,30.08,10.0,WSW,8.1,-,N/A,,Clear,250,2012-11-19 05:55:00
11:15 PM,45.9,24.6,43,30.08,10.0,West,4.6,-,N/A,,Clear,270,2012-11-19 06:15:00
11:35 PM,42.6,24.3,48,30.08,10.0,Calm,Calm,-,N/A,,Clear,0,2012-11-19 06:35:00
11:55 PM,44.2,24.4,46,30.08,10.0,WSW,4.6,-,N/A,,Clear,250,2012-11-19 06:55:00